Location: Fort Frances
(48.6170°N, 93.4170°W)
Time: 16:21:19
(UTC-05:00)

Daily predictions for brighter satellites

Satellite Brightness Start Highest point End
(mag) Time Altitude Azimuth Time Altitude Azimuth Time Altitude Azimuth
USA 81 4.1 21:30:59 10° S 21:36:15 78° E 21:41:34 10° N
ARGOS 3.7 21:33:20 10° SE 21:38:27 46° ENE 21:43:38 10° N
DNEPR-1 R/B 3.6 21:34:53 10° NW 21:39:07 74° NE 21:43:33 10° SE
Cosmos 1743 2.7 21:36:02 10° N 21:39:56 86° E 21:43:50 10° S
Cosmos 773 Rocket 3.9 21:35:46 10° SSW 21:40:54 74° ESE 21:46:03 10° NNE
NOSS 2-2 (D) 4.0 21:37:10 10° S 21:40:55 37° ESE 21:45:15 10° NE
CENTAUR R/B 3.3 21:39:02 10° NW 21:46:48 73° SW 21:55:09 10° SSE
Cosmos 2184 Rocket 4.1 21:42:02 10° N 21:48:27 83° E 21:54:47 10° S
Cosmos 2074 Rocket 4.1 21:43:29 10° N 21:49:46 87° E 21:56:03 10° S
Meteor 2-13 Rocket 4.5 21:45:19 10° N 21:51:25 86° E 21:57:29 10° S
NOSS 3-4 (A) 4.2 21:45:33 10° WSW 21:51:49 62° NW 21:58:25 10° NE
NOSS 3-4 (C) 4.2 21:45:39 10° SW 21:51:56 63° NW 21:58:31 10° NE
Cosmos 1437 Rocket 3.7 21:50:52 10° N 21:54:19 31° ENE 21:57:30 11° SE
Cosmos 1536 Rocket 3.8 21:50:21 10° SSW 21:54:40 73° W 21:59:01 10° N
SL-27 R/B 3.6 21:51:41 10° SSE 21:54:49 27° ESE 21:57:57 10° NE
USA 245 2.9 21:54:50 12° SE 21:57:12 39° ENE 21:59:30 10° N
Cosmos 1606 Rocket 4.4 21:54:05 10° N 21:58:05 35° ENE 22:01:41 12° SE
Aureole 1 Rocket 3.1 21:55:10 10° S 21:58:08 30° ESE 22:00:50 10° NE
YAOGAN 11 4.1 21:55:04 10° SSE 21:59:20 70° ENE 22:03:39 10° N
NOSS 2-2 (C) 3.6 21:55:36 10° SSW 21:59:34 55° SE 22:04:15 10° NE
Cosmos 2056 Rocket 4.2 21:54:47 10° NNW 21:59:45 42° ENE 22:04:17 12° SE
Cosmos 1680 Rocket 3.6 21:55:49 10° S 22:00:54 55° ESE 22:06:00 10° NNE
Cosmos 405 3.1 21:57:39 10° N 22:01:13 60° ENE 22:04:29 12° SSE
TELKOM 3 3.3 21:59:11 10° WNW 22:01:25 70° N 22:04:23 10° E
Cosmos 1697 Rocket 4.3 22:02:17 10° N 22:06:48 24° NE 22:11:18 10° E
MetOp-B 4.2 22:01:38 10° SSE 22:07:00 87° WSW 22:12:24 10° NNW
Meteor 2-9 Rocket 4.2 22:02:02 10° N 22:07:30 87° E 22:13:03 10° S
Cosmos 1726 Rocket 4.3 22:05:24 10° N 22:09:28 38° ENE 22:12:47 14° SE
USA 234 4.3 22:03:43 10° ENE 22:09:50 44° N 22:15:56 10° WNW
Cosmos 1666 3.2 22:09:18 10° NNW 22:13:00 58° W 22:16:41 10° S
Cosmos 2058 Rocket 4.1 22:09:20 10° N 22:13:19 32° ENE 22:16:28 15° SE
Meteor 2-4 Rocket 3.7 22:09:47 10° S 22:15:24 78° E 22:21:13 10° NNE
SPOT 5 2.6 22:13:46 11° SSE 22:17:53 89° WSW 22:22:16 10° NNW
Cosmos 839 Rocket 4.4 22:12:46 10° NNW 22:19:05 66° NE 22:25:33 14° SE
Lacrosse 5 rocket 3.6 22:15:22 10° WNW 22:19:27 30° N 22:23:34 10° NE
SPOT 1/Viking Rocket 3.6 22:15:21 13° SSE 22:20:02 72° ENE 22:25:12 10° N
Landsat 7 4.3 22:17:21 15° SE 22:21:08 49° ENE 22:25:45 10° N
SL-08 RB Rocket 3.6 22:20:54 13° SSE 22:24:53 88° E 22:29:24 10° NNW
Cosmos 1025 Rocket 2.9 22:23:03 10° S 22:27:18 74° E 22:31:35 10° NNE
ASTEX 1 4.2 22:25:02 10° SSW 22:29:47 49° W 22:34:34 10° NNW
Nadezhda 1 Rocket 4.2 22:23:37 10° S 22:29:59 83° W 22:36:26 10° N
Cosmos 1833 Rocket 4.3 22:28:30 14° ESE 22:30:20 16° E 22:33:40 10° ENE
Cosmos 2154 Rocket 4.1 22:25:31 10° N 22:31:54 86° W 22:37:55 12° S
Cosmos 1656 4.4 22:26:53 10° NNW 22:32:02 41° NE 22:36:13 15° ESE
Cosmos 1452 Rocket 4.5 22:27:10 10° N 22:32:02 36° ENE 22:35:54 15° ESE
Terra 2.3 22:32:52 18° SE 22:36:12 49° ENE 22:40:48 10° N
SL-8 Rocket 4.3 22:31:56 10° N 22:38:02 53° ENE 22:42:35 18° SSE
Cosmos 1371 Rocket 4.1 22:33:38 10° NNW 22:38:59 77° WSW 22:43:04 17° SSE
Cosmos 405 Rocket 4.4 22:38:00 10° SW 22:41:25 32° WNW 22:44:55 10° N
Meteor 1-23 Rocket 4.3 22:36:33 10° SSW 22:42:08 84° WNW 22:47:47 10° N
Meteor 1-15 Rocket 4.4 22:38:14 10° NNW 22:43:50 70° W 22:48:42 14° S
Nimbus 7 Rocket 4.4 22:37:47 10° NNE 22:43:53 77° ESE 22:49:57 10° SSW
Cosmos 1515 3.8 22:43:36 21° SSE 22:45:58 57° E 22:49:44 10° NNE
H-2A R/B 2.4 22:45:08 21° SE 22:48:02 61° ENE 22:52:31 10° N
NOSS 2-2 (E) 4.3 22:44:21 10° WSW 22:48:30 58° NW 22:53:35 10° NE
Cosmos 1238 Rocket 4.5 22:41:58 10° SSW 22:48:41 68° WNW 22:55:13 10° N
Cosmos 1980 Rocket 3.5 22:48:23 10° NNW 22:53:23 30° NE 22:57:51 12° ESE
Meteor 1-4 Rocket 3.4 22:50:46 10° N 22:54:11 36° ENE 22:55:39 25° ESE
Cosmos 1441 Rocket 4.4 22:51:45 10° SW 22:55:19 41° WNW 22:58:53 10° N
Cosmos 2341 Rocket 4.2 22:52:10 10° NNW 22:58:30 76° W 23:03:41 16° S
Cosmos 2322 Rocket 4.4 22:56:46 10° N 23:00:33 18° NE 23:04:19 10° ENE
Iridium 82 4.4 22:57:11 10° N 23:00:44 89° E 23:02:33 27° S
CZ-4C R/B 4.1 23:05:12 25° ESE 23:06:30 33° ENE 23:09:44 10° N
H-2A R/B 2.6 23:04:42 16° S 23:08:24 50° W 23:13:20 10° NNW
DMSP B5D2-2 4.0 23:05:28 10° NNE 23:10:48 81° ESE 23:14:52 18° S
COSMOS 2406 4.3 23:07:36 10° SW 23:13:08 47° NW 23:18:38 10° NNE
CZ-4 R/B 4.2 23:10:14 10° NNE 23:15:08 52° E 23:17:40 27° SSE
USA 267 3.8 23:09:22 10° ENE 23:15:17 35° SE 23:19:33 17° S
DELTA 2 DEB (DPAF) 4.5 23:13:12 27° SE 23:15:24 54° ENE 23:19:48 10° N
Cosmos 2218 Rocket 3.9 23:10:15 10° N 23:16:26 82° E 23:20:19 24° SSE
Cosmos 2278 3.8 23:14:55 10° NNW 23:20:37 70° WSW 23:23:52 26° S
Cosmos 1892 Rocket 4.1 23:21:42 16° SSW 23:25:10 57° WNW 23:29:33 10° N
deb Chang Zheng 4 3.5 23:22:08 10° NNE 23:26:28 80° ESE 23:28:42 28° S
Cosmos 2082 Rocket 2.5 23:24:52 27° SSE 23:27:37 47° ESE 23:33:01 10° NE
IGS 5A 3.9 23:26:02 27° SSW 23:28:04 56° W 23:32:11 10° NNW
Cosmos 2228 3.5 23:24:11 10° NNW 23:28:26 53° W 23:30:40 25° SSW
Cosmos 1602 Rocket 3.6 23:30:53 35° SSE 23:32:31 61° E 23:36:48 10° NNE
SeaSat 1 3.2 23:29:44 22° ESE 23:32:39 46° NE 23:37:22 10° NNW
Cosmos 1544 4.0 23:30:11 10° N 23:33:34 35° ENE 23:34:23 31° ESE
Cosmos 1953 3.8 23:30:09 10° NNE 23:33:37 26° ENE 23:34:56 22° ESE
Cosmos 921 Rocket 4.0 23:31:13 10° NNW 23:35:28 41° WSW 23:37:35 25° SSW
Cosmos 2181 Rocket 4.4 23:30:48 12° SSW 23:36:39 61° WNW 23:42:55 10° N
Cosmos 2369 4.2 23:33:13 10° NW 23:38:47 52° WSW 23:41:44 27° S
Cosmos 1842 4.0 23:39:03 33° ESE 23:39:40 35° E 23:43:16 10° NNE
USA 229 DEB 4.0 23:33:26 10° NW 23:40:32 67° NE 23:45:48 20° ESE
USA 229 4.0 23:33:32 10° NW 23:40:38 67° NE 23:45:55 20° ESE
PSLV R/B 3.9 23:40:46 35° WSW 23:41:05 36° W 23:43:44 10° NNW
Cosmos 389 Rocket 4.0 23:39:24 10° NNE 23:42:19 24° ENE 23:43:01 22° E
CZ-2C R/B 4.0 23:38:38 10° NE 23:43:16 26° E 23:44:58 22° ESE
ATLAS CENTAUR R/B 3.6 23:45:53 10° NNW 23:48:30 18° NNE 23:51:03 10° ENE
SL-16 R/B 3.6 23:44:51 10° NNW 23:49:53 31° NE 23:54:09 13° ESE
Nadezhda 3 Rocket 4.3 23:48:00 30° SSE 23:51:01 53° E 23:57:11 10° NNE
Cosmos 1697 Rocket 2.7 23:45:46 10° NNW 23:51:24 77° WSW 23:53:56 34° SSE
Cosmos 1271 Rocket 2.7 23:48:07 10° N 23:51:59 70° ENE 23:52:54 48° SE
USA 234 3.5 23:45:51 10° ESE 23:52:21 68° NNE 23:58:50 10° NW
Iridium 2 3.6 23:50:13 10° N 23:54:03 83° E 23:54:53 53° SSE
COSMOS 2487 2.9 23:53:27 33° SW 23:54:51 61° WNW 23:58:24 10° NNE
Orbus 7S? 3.8 23:48:33 10° NW 23:55:58 84° NE 23:57:33 36° ESE
